Flag for Austria Weather past 2 weeks in Traun, Upper Austria, Austria

Now
77 °F

Scattered clouds.


Feels Like: 78 °F
Forecast: 56 / 81 °F
Wind: 2 mph from North

Location: Linz / Hoersching-Flughafen

Current Time: Jun 2, 2015 at 3:51:26 PM

Latest Report: Jun 2, 2015 at 3:20 PM


Visibility: N/A

Pressure: 30.09 "Hg

Humidity: 44%

Dew point: 54 °F

Location of TraunLocation

Historic Weather in Traun — Graph

°F

Traun temperature yesterday

Maximum temperature yesterday: 77 °F (at 1:50 PM)
Minimum temperature yesterday: 54 °F (at 4:50 AM)
Average temperature yesterday: 67 °F

Past Weeks' High & Low Weather Summary

 TemperatureHumidityPressure
High77 °F (Jun 1, 1:50 PM)100% (May 20, 1:50 AM)30.27 "Hg (May 20, 1:50 AM)
Low43 °F (May 28, 5:20 AM)31% (May 29, 5:20 PM)29.71 "Hg (May 19, 3:50 AM)
Average57 °F78%30.02 "Hg
* Reported May 18 2:20 PM — Jun 2 2:50 PM, Traun, Weather by CustomWeather, © 2015

Note: Actual official high and low records may vary slightly from our data, if they occured in-between our weather recording intervals... More about our weather records

Advertising

Traun weather history for previous 24 hours

 ConditionsComfort  
Time TempWeatherWind HumidityBarometerVisibility
2:50 PM
Tue, Jun 2
77 °FPartly sunny.3 mph44%30.09 "HgN/A
2:20 PM75 °FPartly sunny.3 mph54%30.09 "HgN/A
1:50 PM75 °FPartly sunny.5 mph54%30.09 "HgN/A
1:20 PM73 °FPartly sunny.5 mph57%30.12 "HgN/A
12:50 PM73 °FScattered clouds.3 mph61%30.12 "HgN/A
12:20 PM70 °FScattered clouds.3 mph64%30.12 "HgN/A
11:50 AM70 °FScattered clouds.3 mph64%30.12 "HgN/A
11:20 AM70 °FPartly sunny.6 mph64%30.12 "HgN/A
10:50 AM70 °FPartly sunny.3 mph64%30.12 "HgN/A
10:20 AM70 °FPartly sunny.2 mph64%30.12 "HgN/A
9:50 AM66 °FPartly sunny.3 mph73%30.12 "HgN/A
9:20 AM64 °FPartly sunny.1 mph78%30.12 "HgN/A
8:50 AM64 °FPartly sunny.2 mph78%30.12 "HgN/A
8:20 AM63 °FPartly sunny.5 mph77%30.12 "HgN/A
7:50 AM63 °FPartly sunny.6 mph83%30.09 "HgN/A
7:20 AM63 °FPartly sunny.5 mph77%30.09 "HgN/A
6:50 AM61 °FPartly sunny.1 mph88%30.09 "HgN/A
5:20 AM61 °FPartly cloudy.9 mph83%30.09 "HgN/A
4:50 AM59 °FPartly cloudy.7 mph88%30.09 "HgN/A
4:20 AM59 °FPartly cloudy.7 mph88%30.09 "HgN/A
3:50 AM61 °FPartly cloudy.8 mph83%30.09 "HgN/A
3:20 AM61 °FClear.9 mph83%30.09 "Hg10 mi
2:50 AM59 °FClear.7 mph88%30.09 "Hg10 mi
2:20 AM59 °FPassing clouds.8 mph88%30.09 "HgN/A
1:50 AM61 °FPassing clouds.10 mph83%30.09 "HgN/A
1:20 AM61 °FPassing clouds.12 mph83%30.07 "HgN/A
12:50 AM61 °FClear.10 mph83%30.09 "Hg10 mi
12:20 AM63 °FMild.9 mph77%30.07 "HgN/A
11:50 PM
Mon, Jun 1
64 °FClear.16 mph73%30.07 "Hg10 mi
11:20 PM66 °FPassing clouds.10 mph68%30.04 "HgN/A
10:50 PM66 °FPassing clouds.2 mph64%30.01 "HgN/A
10:20 PM66 °FPassing clouds.5 mph64%30.01 "HgN/A
9:50 PM68 °FPartly sunny.6 mph60%30.01 "HgN/A
9:20 PM68 °FPartly sunny.7 mph60%29.98 "HgN/A
8:50 PM70 °FPartly sunny.7 mph60%29.98 "HgN/A
8:20 PM73 °FPartly sunny.8 mph50%29.98 "HgN/A
7:50 PM75 °FPartly sunny.7 mph44%29.98 "HgN/A
7:20 PM75 °FPartly sunny.6 mph44%29.98 "HgN/A
6:50 PM77 °FPartly sunny.3 mph47%29.98 "HgN/A
6:20 PM77 °FBroken clouds.3 mph44%29.98 "HgN/A
5:50 PM77 °FPartly sunny.6 mph44%29.98 "HgN/A
5:20 PM77 °FPartly sunny.2 mph42%29.98 "HgN/A
4:50 PM77 °FPartly sunny.2 mph44%29.98 "HgN/A
4:20 PM77 °FPartly sunny.2 mph42%30.01 "HgN/A
3:50 PM77 °FPartly sunny.3 mph42%30.01 "HgN/A
3:20 PM77 °FPartly sunny.5 mph44%30.01 "HgN/A
Weather by CustomWeather, © 2015

See weather overviewHow to use our weather pages